This demonstration page uses our WeatherBlox Daily Observations layout. Learn more.

Left ArrowRight Arrow

44.31136, -96.79839

Hourly Observations for June 27, 2019

Temp ( °F °C ) Dew Point ( °F °C ) Humidity (%) Winds ( mph kmh ) Pressure ( in mb ) Visibility ( mi km ) Precip ( " mm )
12:56 am 00:56 Clear 72 22.2 63 17.2 73 73 SSE 8 13 30.02 1017 10 16 0.00 0.00
1:56 am 01:56 Clear 70 21.1 63 17.2 79 79 SSE 8 13 30.02 1017 10 16 0.00 0.00
2:56 am 02:56 Partly Cloudy 69 20.6 64 17.8 84 84 SE 7 11 30.02 1017 10 16 0.00 0.00
3:56 am 03:56 Cloudy 70 21.1 65 18.3 84 84 SE 8 13 30.02 1017 10 16 0.00 0.00
4:51 am 04:51 Cloudy 72 22 64 18 78 78 SE 13 20 29.92 1013 10 16 0.00 0.00
4:56 am 04:56 Cloudy 71 21.7 65 18.3 81 81 ESE 12 19 29.97 1015 10 16 0.00 0.00
5:29 am 05:29 Mostly Cloudy with Thunderstorms 72 22 64 18 78 78 SE 13 20 29.91 1013 10 16 0.00 0.00
5:49 am 05:49 Cloudy with Thunderstorms 70 21 64 18 83 83 SSW 8 13 29.96 1015 10 16 0.00 0.03
5:56 am 05:56 Cloudy with Thunderstorms 70 21.1 65 18.3 84 84 WNW 9 15 30.03 1017 10 16 0.00 0.03
6:00 am 06:00 Cloudy with Thunderstorms 70 21 64 18 83 83 WNW 6 9 29.95 1014 10 16 0.00 0.03
6:56 am 06:56 Cloudy with Nearby Thunderstorms 67 19.4 65 18.3 93 93 NNE 6 9 29.97 1015 10 16 0.00 0.00
7:25 am 07:25 Cloudy with Strong Thunderstorms 66 19 64 18 94 94 NW 20 31 30.05 1018 2 3 0.04 1.02
7:28 am 07:28 Cloudy with Heavy Rain 66 19 64 18 94 94 NW 22 35 30.06 1018 1 2 0.04 1.02
7:31 am 07:31 Cloudy with Strong Thunderstorms 64 18 63 17 94 94 WNW 12 19 30.07 1018 1 1 0.05 1.27
7:36 am 07:36 Cloudy with Strong Thunderstorms 63 17 61 16 94 94 VRB 6 9 30.04 1017 1 1 0.05 1.27
7:39 am 07:39 Cloudy with Strong Thunderstorms 63 17 61 16 94 94 SW 10 17 30.05 1018 1 2 0.06 1.52
7:43 am 07:43 Cloudy with Thunderstorms 63 17 63 17 100 100 SE 8 13 30.02 1016 2 3 0.06 1.52
7:46 am 07:46 Cloudy with Thunderstorms 63 17 61 16 94 94 E 12 19 30.00 1016 4 6 0.06 1.52
7:56 am 07:56 Cloudy with Thunderstorms 64 17.8 63 17.2 96 96 ENE 7 11 29.98 1015 9 14 0.07 1.78
8:11 am 08:11 Partly Cloudy 64 18 63 17 94 94 SE 24 39 29.92 1013 10 16 0.01 0.25
8:24 am 08:24 Sunny with Light Rain 63 17 63 17 100 100 SE 24 39 29.92 1013 10 16 0.02 0.51
8:56 am 08:56 Mostly Sunny 66 18.9 63 17.2 90 90 SSE 20 31 29.98 1015 10 16 0.03 0.76
9:56 am 09:56 Sunny 67 19.4 61 16.1 81 81 SSE 14 22 29.97 1015 10 16 0.00 0.00
10:56 am 10:56 undefined 68 20 62 16.7 81 81 S 9 15 29.90 1012 10 16 0.00 0.00
11:17 am 11:17 Mostly Sunny 70 21 63 17 78 78 SSW 8 13 29.91 1013 9 14 0.00 0.00
11:56 am 11:56 Sunny 73 22.8 65 18.3 76 76 SSW 8 13 29.89 1012 10 16 0.00 0.00
12:56 pm 12:56 Sunny 78 25.6 70 21.1 76 76 SSW 16 26 29.87 1011 10 16 0.00 0.00
1:56 pm 13:56 Sunny 80 26.7 70 21.1 71 71 SSW 20 31 29.87 1012 10 16 0.00 0.00
2:45 pm 14:45 Mostly Cloudy 81 27 72 22 74 74 S 15 24 29.88 1012 10 16 0.00 0.00
2:56 pm 14:56 Mostly Cloudy 80 26.7 72 22.2 76 76 SSW 15 24 29.89 1012 10 16 0.00 0.00
3:56 pm 15:56 Mostly Cloudy 81 27.2 72 22.2 74 74 SW 9 15 29.89 1012 10 16 0.00 0.00
4:39 pm 16:39 Cloudy 81 27 72 22 74 74 S 8 13 29.90 1012 10 16 0.00 0.00
4:56 pm 16:56 Cloudy 81 27.2 72 22.2 74 74 S 8 13 29.90 1012 10 16 0.00 0.00
5:56 pm 17:56 Mostly Cloudy 82 27.8 73 22.8 74 74 S 6 9 29.89 1012 10 16 0.00 0.00
6:56 pm 18:56 Mostly Cloudy 82 27.8 72 22.2 72 72 S 5 7 29.89 1012 10 16 0.00 0.00
7:56 pm 19:56 Sunny 80 26.7 72 22.2 76 76 SE 8 13 29.90 1013 10 16 0.00 0.00
8:56 pm 20:56 Sunny 79 26.1 72 22.2 79 79 NE 10 17 29.91 1013 10 16 0.00 0.00
9:56 pm 21:56 Clear 74 23.3 69 20.6 85 85 ENE 12 19 29.93 1014 10 16 0.00 0.00
10:56 pm 22:56 Clear 72 22.2 69 20.6 91 91 E 12 19 30.02 1017 10 16 0.00 0.00
11:56 pm 23:56 Clear 71 21.7 67 19.4 87 87 E 7 11 30.02 1017 10 16 0.00 0.00

Powered by AerisWeather